Wetbulb
67.11 69.86 70.71 69.14 68.04 68.54 67.39 68.17 69.00 69.19 69.36 68.95 69.19 68.91 69.44 69.52 69.65 69.34 69.20 68.45 68.04 67.62 67.41 66.20 66.36 65.78 64.53 63.39 62.71 62.23 58.12 59.00
65.29 66.10 65.70 64.28 64.93 66.90 66.52 66.31 65.81 65.61 66.83 66.79 67.03 66.32 67.57 68.09 68.27 68.73 68.61 68.05 67.45 66.76 65.82 65.38 65.90 64.88 63.68 62.80 62.36 61.36 57.11 58.07
63.09 63.76 64.53 64.63 65.38 66.94 66.92 66.05 64.74 65.05 65.91 65.11 63.03 64.07 65.98 66.45 66.55 66.85 67.55 66.24 66.01 65.63 64.69 64.96 64.55 63.74 63.11 62.45 61.00 57.49 56.92 56.46
61.87 62.41 62.72 62.80 65.04 64.81 65.23 63.58 64.91 63.57 63.87 63.49 62.02 63.62 65.02 65.07 65.67 66.22 66.04 65.62 65.39 64.68 64.18 64.29 62.90 60.80 60.86 60.47 57.76 57.04 57.19 57.21
61.02 62.20 63.92 62.98 62.60 62.16 63.08 63.77 63.87 62.95 62.74 62.36 62.35 63.20 64.59 64.18 63.95 64.17 63.91 64.56 62.41 61.32 59.90 59.35 59.63 59.14 57.22 56.88 57.15 57.19 57.13 57.54
61.09 63.31 63.41 63.54 62.89 61.68 61.19 61.39 62.05 61.29 61.28 60.61 62.10 62.39 63.16 64.12 63.47 62.46 61.41 60.91 59.91 58.35 55.55 55.79 57.23 57.38 56.84 56.55 56.58 56.56 56.10 56.63
61.65 62.21 62.67 62.87 62.35 61.63 60.68 59.98 60.38 60.70 60.44 60.28 62.20 62.64 63.29 63.67 62.88 61.76 59.34 58.83 58.42 56.19 54.23 55.18 56.24 56.46 56.73 56.44 56.21 55.69 55.81 56.99
61.59 61.30 63.21 63.13 62.35 61.13 60.38 59.34 60.38 59.68 61.31 60.55 63.11 63.00 63.51 62.51 61.66 60.78 59.30 58.14 56.78 55.95 54.09 54.23 55.96 56.33 56.25 56.16 56.01 55.79 56.07 55.95
60.36 61.02 62.86 62.75 62.19 61.06 61.28 61.74 61.67 61.42 61.33 60.65 62.32 63.58 63.06 62.23 61.01 59.19 58.67 57.04 54.47 53.64 52.59 52.21 53.95 56.58 55.91 55.66 55.50 55.30 55.76 55.79
59.26 61.73 61.20 62.24 61.51 61.42 61.73 61.55 61.03 62.09 62.65 62.79 61.87 63.27 62.71 61.18 59.56 58.91 58.58 56.54 55.05 53.80 52.81 52.13 53.45 55.75 55.00 55.14 54.95 55.24 55.39 55.41
59.02 61.38 60.51 61.30 61.45 61.59 60.97 60.30 59.72 60.32 61.51 61.64 62.72 62.11 61.12 59.68 58.31 57.53 57.21 56.35 55.16 53.91 53.34 53.73 53.06 54.44 55.26 55.04 54.35 54.70 55.00 56.16
59.24 60.03 61.26 61.27 61.38 61.11 60.31 59.72 59.36 59.76 59.68 60.68 61.71 62.15 60.32 58.09 57.38 56.82 56.54 53.82 53.81 54.12 54.34 53.31 53.25 54.65 55.97 54.85 54.69 54.07 54.92 54.19
58.97 58.74 60.38 60.66 60.22 59.48 59.14 58.46 58.66 58.74 58.68 60.15 60.46 61.69 60.45 58.27 57.40 56.68 55.87 52.27 53.51 54.95 52.93 52.79 52.14 53.80 52.85 51.66 51.97 53.98 53.76 54.19
57.67 58.04 59.47 60.40 60.39 60.27 59.81 59.85 59.43 59.26 58.69 58.74 60.30 60.22 61.28 59.27 57.48 57.29 55.93 54.44 54.63 55.01 53.11 51.90 52.12 53.46 52.14 51.39 48.76 50.67 52.50 52.84
56.89 57.77 58.34 59.39 59.91 58.65 58.37 58.23 58.36 58.50 58.10 58.53 59.81 59.63 59.97 60.79 58.50 58.05 57.56 56.32 55.76 54.98 53.36 53.44 51.91 52.00 53.24 51.39 46.97 48.02 48.72 50.08
56.17 58.20 57.87 58.41 59.07 58.42 57.56 57.03 56.33 57.49 58.26 58.41 59.33 59.07 59.14 58.89 60.01 58.43 58.42 58.11 56.73 55.37 55.05 54.50 53.96 52.76 50.95 52.05 51.85 50.82 48.00 46.46
57.01 57.04 56.77 57.58 57.83 57.81 57.22 56.22 56.55 57.34 57.32 57.39 58.45 58.41 57.83 57.30 58.72 57.91 57.73 58.15 57.65 56.37 54.27 52.84 54.95 54.20 51.22 50.33 50.69 51.06 50.69 48.82
56.13 56.01 55.23 56.67 57.06 56.67 55.21 55.96 55.67 55.97 56.47 56.25 57.39 58.03 57.05 56.68 57.79 57.26 57.41 57.28 57.15 56.76 55.58 53.94 53.76 55.12 53.32 52.08 51.32 50.89 50.68 49.99
55.69 55.71 55.22 55.77 56.90 56.23 55.39 54.31 55.41 55.79 55.89 56.33 56.31 56.67 56.25 55.57 56.36 56.89 56.46 56.67 57.16 57.28 56.31 55.83 53.96 53.40 54.05 52.54 53.10 52.54 53.24 53.15
55.23 54.92 55.21 55.57 56.28 56.89 56.84 55.34 56.01 55.31 56.16 56.21 56.57 56.69 56.36 55.89 56.22 56.83 57.28 56.91 56.58 57.16 56.57 55.95 55.59 54.25 53.84 53.91 53.09 53.05 52.79 52.52
MSLP
1007.36 1007.58 1007.89 1008.29 1008.34 1008.46 1008.89 1009.34 1009.63 1009.72 1010.42 1011.01 1011.97 1011.72 1011.81 1012.52 1013.04 1013.47 1013.85 1014.42 1015.18 1015.88 1016.31 1016.73 1017.29 1017.61 1018.12 1018.48 1018.97 1019.13 1019.49 1019.88
1007.40 1007.72 1007.98 1008.35 1008.41 1008.74 1009.24 1010.16 1010.56 1009.69 1011.57 1011.66 1012.11 1012.78 1013.00 1013.20 1013.68 1014.10 1014.11 1014.65 1015.58 1016.11 1016.62 1016.92 1017.60 1017.91 1018.31 1018.90 1019.23 1019.42 1019.81 1020.24
1007.67 1007.88 1007.99 1008.29 1008.47 1008.56 1009.12 1009.80 1010.20 1009.99 1011.28 1011.87 1013.12 1013.44 1013.70 1013.54 1014.09 1014.49 1014.66 1014.79 1015.78 1016.38 1016.89 1017.32 1017.95 1018.25 1018.75 1019.05 1019.47 1019.86 1020.21 1020.52
1007.91 1008.03 1008.18 1008.43 1008.51 1008.90 1009.22 1009.90 1010.50 1011.01 1011.42 1012.03 1012.43 1012.54 1013.66 1014.31 1014.37 1014.65 1015.21 1015.30 1015.87 1016.66 1017.18 1017.63 1018.15 1018.65 1019.11 1019.41 1019.90 1020.19 1020.69 1020.69
1007.97 1008.09 1008.27 1008.66 1008.94 1009.14 1009.47 1009.80 1010.38 1011.14 1011.36 1011.99 1012.51 1012.34 1013.39 1014.68 1014.91 1015.02 1015.61 1016.14 1015.99 1016.88 1017.57 1017.96 1018.34 1018.83 1019.52 1019.78 1019.96 1020.65 1020.97 1021.02
1007.90 1008.10 1008.30 1008.55 1008.87 1009.42 1009.65 1009.96 1010.38 1010.93 1011.35 1012.10 1012.51 1012.80 1012.89 1013.88 1014.85 1015.25 1015.77 1016.33 1016.32 1016.96 1017.80 1018.16 1018.46 1018.97 1019.34 1019.78 1020.48 1020.98 1021.26 1021.44
1007.70 1008.00 1008.29 1008.37 1008.76 1009.37 1009.86 1010.23 1010.52 1010.85 1011.49 1011.87 1012.13 1012.58 1013.21 1013.48 1014.36 1014.99 1015.82 1016.22 1016.46 1017.06 1017.65 1018.03 1018.49 1019.01 1019.45 1020.01 1020.73 1021.10 1021.57 1021.82
1007.39 1007.82 1007.98 1008.28 1008.64 1009.13 1009.68 1010.10 1010.41 1010.96 1011.30 1011.72 1011.92 1012.33 1012.76 1013.27 1014.15 1014.93 1015.74 1016.17 1016.62 1016.85 1017.58 1018.15 1018.46 1019.16 1019.68 1020.24 1020.79 1021.17 1021.74 1022.14
1007.18 1007.48 1007.80 1008.09 1008.48 1008.98 1009.47 1009.80 1010.11 1010.70 1011.05 1011.41 1011.57 1011.99 1012.57 1013.01 1013.94 1014.91 1015.56 1016.25 1016.57 1017.29 1017.83 1018.28 1018.78 1019.34 1020.01 1020.35 1020.97 1021.19 1021.85 1022.37
1007.00 1007.28 1007.74 1008.03 1008.48 1008.91 1009.29 1009.54 1009.87 1010.24 1010.54 1010.89 1011.34 1011.78 1012.44 1012.90 1013.76 1014.64 1015.43 1016.11 1016.15 1017.05 1018.09 1018.62 1018.90 1019.26 1020.04 1020.67 1021.10 1021.30 1021.85 1022.35
1006.91 1007.22 1007.62 1007.99 1008.53 1008.93 1009.32 1009.65 1009.91 1010.10 1010.24 1009.88 1010.53 1011.56 1012.38 1013.09 1013.79 1014.50 1015.14 1015.69 1016.01 1016.85 1017.71 1018.52 1018.94 1019.47 1020.14 1020.92 1021.30 1021.61 1021.87 1022.15
1006.75 1007.17 1007.56 1007.96 1008.49 1009.01 1009.48 1009.82 1010.15 1010.22 1010.31 1010.43 1010.74 1011.79 1012.72 1013.39 1013.83 1014.46 1015.05 1015.80 1016.48 1016.85 1017.46 1018.41 1018.70 1019.59 1020.37 1020.99 1021.48 1021.66 1021.81 1022.14
1006.71 1007.06 1007.46 1007.87 1008.36 1008.94 1009.44 1009.72 1010.21 1010.53 1010.81 1010.98 1011.38 1011.89 1012.58 1013.10 1013.84 1014.66 1015.20 1015.91 1016.28 1016.90 1017.42 1018.07 1019.10 1019.44 1020.34 1021.55 1021.94 1022.12 1022.16 1022.31
1006.60 1007.01 1007.35 1007.74 1008.11 1008.67 1009.25 1009.75 1010.14 1010.59 1011.08 1011.30 1011.55 1012.11 1012.52 1013.05 1013.76 1014.45 1015.15 1015.88 1016.36 1016.70 1016.98 1017.93 1018.75 1019.12 1019.75 1020.65 1021.94 1022.44 1022.41 1022.57
1006.35 1006.78 1007.29 1007.65 1007.99 1008.61 1009.23 1009.82 1010.33 1010.66 1011.01 1011.46 1011.75 1012.10 1012.57 1012.97 1013.63 1014.23 1015.06 1015.52 1016.07 1016.59 1016.92 1017.39 1018.17 1019.11 1019.16 1019.49 1020.90 1021.61 1022.10 1022.34
1006.27 1006.77 1007.16 1007.60 1007.94 1008.39 1008.95 1009.40 1009.88 1010.14 1010.56 1011.19 1011.55 1011.87 1012.36 1012.82 1013.56 1014.07 1014.78 1015.42 1015.94 1016.45 1016.90 1017.12 1017.61 1018.38 1019.12 1019.06 1019.06 1019.78 1021.20 1022.17
1006.16 1006.83 1007.26 1007.43 1007.80 1008.16 1008.83 1009.38 1009.83 1010.14 1010.49 1010.94 1011.53 1011.72 1012.27 1012.71 1013.52 1014.07 1014.76 1015.20 1015.84 1016.08 1016.71 1016.90 1017.19 1017.67 1018.25 1018.98 1019.12 1019.77 1020.42 1021.05
1006.10 1006.61 1007.15 1007.36 1007.67 1008.11 1008.64 1009.24 1009.82 1010.15 1010.56 1010.83 1011.25 1011.54 1012.25 1012.86 1013.43 1013.95 1014.28 1014.85 1015.31 1015.76 1016.23 1016.66 1016.94 1017.17 1017.65 1018.11 1018.75 1018.98 1020.13 1020.57
1005.79 1006.40 1006.93 1007.34 1007.61 1008.09 1008.61 1009.04 1009.56 1009.96 1010.21 1010.52 1010.98 1011.39 1011.89 1012.67 1013.14 1013.67 1013.94 1014.22 1014.66 1015.26 1016.21 1016.45 1016.90 1017.12 1017.02 1017.46 1017.91 1018.19 1018.00 1019.40
1005.49 1006.14 1006.65 1007.22 1007.61 1007.93 1008.33 1008.70 1009.03 1009.75 1010.15 1010.49 1010.82 1011.17 1011.47 1012.06 1012.56 1013.16 1013.79 1014.02 1014.65 1015.19 1016.01 1016.29 1016.79 1017.11 1016.83 1016.96 1017.35 1017.64 1017.86 1017.94
Wind_Speed
6 11 13 9 11 15 12 11 16 9 13 20 19 15 20 18 19 19 20 22 20 19 20 19 19 20 19 17 15 15 9 8
6 5 6 4 5 9 13 21 21 21 14 3 15 10 9 14 14 18 22 22 19 19 18 17 20 20 19 16 15 13 7 7
3 5 5 6 5 8 16 22 21 29 23 18 11 5 6 12 12 16 19 22 20 17 15 17 20 20 19 17 13 5 7 4
4 5 6 6 5 6 9 12 10 9 13 14 9 7 6 8 8 15 15 20 20 17 16 20 15 9 8 12 5 6 5 5
5 5 6 8 6 4 3 5 6 6 10 9 10 9 9 7 4 5 7 12 10 12 11 7 11 8 6 5 6 5 4 4
6 7 7 8 6 5 5 5 5 6 7 7 6 6 12 9 6 6 6 5 9 9 6 8 9 9 9 8 7 5 3 3
9 9 9 7 7 5 5 5 5 6 7 8 7 9 10 10 8 6 3 4 8 9 8 7 8 8 9 10 7 6 5 2
9 10 8 8 7 7 6 4 5 5 6 8 9 10 9 10 10 7 6 5 6 9 9 7 7 8 9 8 8 6 5 4
12 10 10 8 8 7 6 5 5 6 6 11 9 12 13 11 9 8 7 5 7 6 5 4 5 6 9 7 6 6 5 4
9 9 10 8 8 6 4 5 4 4 7 11 14 13 13 12 10 9 8 7 8 7 6 5 5 7 6 6 5 6 6 5
10 10 10 9 8 6 5 6 4 2 5 4 14 13 12 9 8 8 8 7 8 8 4 7 4 5 6 5 5 5 6 6
10 10 9 9 7 6 4 4 3 2 4 4 8 8 10 8 6 7 8 7 5 5 8 3 5 6 7 6 5 4 4 5
11 12 10 8 7 6 4 3 3 2 3 4 6 8 10 9 7 7 6 6 9 8 4 6 3 4 6 3 3 2 3 3
11 12 11 8 6 5 3 4 3 3 3 3 6 7 9 9 10 9 8 6 6 8 6 4 3 6 4 5 3 1 2 2
11 10 13 11 8 6 4 4 3 4 4 5 6 9 7 9 11 10 8 7 7 6 6 8 5 3 7 5 4 3 2 2
9 13 13 9 10 8 8 5 4 4 5 6 6 9 10 6 6 10 9 6 8 8 6 7 6 9 1 1 3 6 4 2
12 13 10 9 10 9 7 6 4 3 4 9 9 7 7 7 9 9 10 7 9 10 7 6 8 7 4 3 2 2 3 2
13 14 9 9 9 8 9 9 7 6 7 8 8 8 6 6 7 9 11 9 10 7 6 6 6 9 6 6 4 5 4 3
14 15 13 10 9 8 7 8 8 8 8 7 8 8 8 8 10 9 7 6 7 8 5 3 3 6 12 6 4 6 7 8
17 16 14 12 12 10 8 6 6 6 7 6 7 9 11 12 11 10 9 8 5 6 6 5 6 8 9 8 7 7 5 5
Wind_Direction
172 191 199 219 209 198 204 194 204 156 149 152 174 133 137 145 146 144 136 129 130 134 135 129 131 132 128 124 123 123 119 119
174 148 146 146 177 184 131 112 109 74 80 84 130 116 138 146 148 147 134 127 128 133 131 122 142 135 129 125 117 107 101 116
137 141 130 122 110 147 138 140 151 146 145 136 106 127 187 178 157 151 139 128 130 131 120 136 137 131 129 122 116 108 106 108
174 157 141 127 132 127 142 151 155 146 149 149 136 122 150 198 164 143 141 130 130 124 121 133 129 128 123 117 125 108 118 119
182 154 161 149 135 126 136 141 157 156 162 161 175 136 154 184 163 125 135 140 131 126 122 130 139 135 135 124 113 125 137 111
167 173 171 158 142 145 145 153 160 160 181 159 175 161 156 162 180 147 148 168 135 131 135 135 140 141 135 117 132 138 121 123
175 172 178 151 143 143 154 165 169 170 166 168 173 163 168 155 162 147 153 145 146 144 138 133 140 135 139 141 142 132 138 149
169 179 166 159 153 149 154 171 154 157 160 182 180 176 168 162 158 157 161 164 149 151 145 145 136 145 141 142 149 136 142 157
176 168 170 158 154 150 164 175 160 168 190 184 188 171 168 161 154 158 164 160 128 118 119 122 120 150 153 142 146 134 143 166
164 164 174 153 145 146 159 160 152 172 174 187 191 171 169 161 158 165 166 160 144 142 138 131 142 143 144 150 150 137 148 156
163 167 169 150 146 145 148 147 147 146 139 115 145 146 149 156 158 155 159 163 157 158 135 141 150 126 139 144 141 154 158 163
159 173 161 152 142 139 135 138 109 119 109 135 117 143 157 148 144 147 160 158 159 149 161 127 138 141 142 144 158 147 155 176
168 173 163 157 153 154 164 162 154 147 136 151 135 158 166 154 143 147 155 174 168 162 136 139 114 145 113 71 52 54 182 202
171 174 172 167 157 151 136 156 163 168 150 155 157 155 161 163 158 162 169 171 164 169 147 123 111 169 140 133 138 100 242 231
175 174 176 177 150 122 112 100 97 159 172 182 183 162 153 166 171 168 172 177 181 178 166 163 152 192 177 143 138 178 146 166
170 181 186 172 155 158 166 184 178 188 177 173 182 175 168 150 162 178 176 179 184 182 185 177 173 183 115 278 114 134 155 208
170 183 185 171 170 170 176 192 190 165 157 172 180 166 154 140 178 172 195 184 193 182 178 171 186 174 150 164 113 103 98 140
175 179 182 180 174 169 171 189 191 180 184 181 186 177 159 158 183 179 181 178 177 173 161 173 192 181 189 162 194 146 178 150
178 181 185 179 182 185 184 175 183 187 178 184 170 181 172 175 175 173 166 151 151 146 171 201 242 209 187 191 178 199 163 204
180 182 184 182 183 189 200 195 173 172 177 179 188 188 188 178 171 169 182 169 161 152 185 196 236 247 203 197 198 200 201 178